Hourly Weather Udong

Today, 23 January, Saturday

Time Temperature Precipitation Wind Pressure Humidity
00:00 +27°C° 0 mm 2 mps 755 mmHg 67%
01:00 +27°C° 0 mm 2 mps 755 mmHg 68%
02:00 +27°C° 0 mm 2 mps 755 mmHg 70%
03:00 +26°C° 0 mm 2 mps 755 mmHg 72%
04:00 +26°C° 0 mm 2 mps 755 mmHg 74%
05:00 +26°C° 0 mm 1 mps 755 mmHg 75%
06:00 +26°C° 0 mm 1 mps 756 mmHg 77%
07:00 +26°C° 0 mm 1 mps 756 mmHg 78%
08:00 +28°C° 0 mm 1 mps 756 mmHg 71%
09:00 +30°C° 0 mm 1 mps 757 mmHg 63%
10:00 +31°C° 0 mm 1 mps 757 mmHg 56%
11:00 +32°C° 0.1 mm 1 mps 757 mmHg 53%
12:00 +34°C° 0.1 mm 2 mps 756 mmHg 50%
13:00 +35°C° 0.1 mm 2 mps 755 mmHg 47%
14:00 +35°C° 0 mm 2 mps 755 mmHg 48%
15:00 +35°C° 0 mm 3 mps 754 mmHg 48%
16:00 +35°C° 0 mm 3 mps 754 mmHg 48%
17:00 +33°C° 0 mm 3 mps 754 mmHg 55%
18:00 +30°C° 0 mm 3 mps 754 mmHg 63%
19:00 +29°C° 0 mm 4 mps 755 mmHg 70%
20:00 +28°C° 0 mm 3 mps 755 mmHg 73%
21:00 +28°C° 0 mm 3 mps 756 mmHg 75%
22:00 +27°C° 0 mm 2 mps 756 mmHg 77%
23:00 +27°C° 0 mm 2 mps 756 mmHg 78%

Tomorrow, 24 January, Sunday

Time Temperature Precipitation Wind Pressure Humidity
00:00 +27°C° 0 mm 2 mps 756 mmHg 79%
01:00 +26°C° 0 mm 2 mps 756 mmHg 81%
02:00 +26°C° 0 mm 2 mps 756 mmHg 82%
03:00 +26°C° 0 mm 2 mps 755 mmHg 84%
04:00 +25°C° 0 mm 2 mps 755 mmHg 85%
05:00 +25°C° 0 mm 1 mps 756 mmHg 86%
06:00 +25°C° 0 mm 1 mps 756 mmHg 86%
07:00 +24°C° 0 mm 0 mps 756 mmHg 86%
08:00 +27°C° 0.1 mm 1 mps 757 mmHg 79%
09:00 +29°C° 0.1 mm 1 mps 757 mmHg 71%
10:00 +31°C° 0.1 mm 1 mps 757 mmHg 63%
11:00 +31°C° 0.6 mm 1 mps 757 mmHg 60%
12:00 +32°C° 0.6 mm 1 mps 756 mmHg 57%
13:00 +34°C° 0.6 mm 2 mps 755 mmHg 55%
14:00 +34°C° 0.1 mm 2 mps 755 mmHg 53%
15:00 +33°C° 0.1 mm 1 mps 754 mmHg 51%
16:00 +34°C° 0.1 mm 1 mps 753 mmHg 49%
17:00 +33°C° 0.1 mm 1 mps 754 mmHg 53%
18:00 +31°C° 0.1 mm 1 mps 754 mmHg 57%
19:00 +30°C° 0.1 mm 1 mps 755 mmHg 60%
20:00 +30°C° 0 mm 1 mps 755 mmHg 63%
21:00 +29°C° 0 mm 2 mps 756 mmHg 67%
22:00 +28°C° 0 mm 2 mps 756 mmHg 70%
23:00 +28°C° 0 mm 2 mps 756 mmHg 73%

Day after tomorrow, 25 January, Monday

Time Temperature Precipitation Wind Pressure Humidity
00:00 +27°C° 0 mm 2 mps 756 mmHg 76%
01:00 +27°C° 0 mm 1 mps 756 mmHg 79%
02:00 +27°C° 0 mm 2 mps 755 mmHg 81%
03:00 +26°C° 0 mm 2 mps 755 mmHg 83%
04:00 +26°C° 0 mm 2 mps 755 mmHg 85%
05:00 +26°C° 0 mm 2 mps 756 mmHg 87%
06:00 +25°C° 0 mm 2 mps 756 mmHg 89%
07:00 +25°C° 0 mm 1 mps 756 mmHg 90%
08:00 +27°C° 0 mm 2 mps 757 mmHg 82%
09:00 +29°C° 0 mm 2 mps 757 mmHg 73%
10:00 +31°C° 0 mm 2 mps 757 mmHg 65%
11:00 +32°C° 0 mm 2 mps 756 mmHg 59%
12:00 +33°C° 0 mm 1 mps 756 mmHg 54%
13:00 +35°C° 0 mm 1 mps 755 mmHg 48%
14:00 +36°C° 0 mm 2 mps 754 mmHg 48%
15:00 +36°C° 0 mm 2 mps 753 mmHg 47%
16:00 +36°C° 0 mm 2 mps 753 mmHg 46%
17:00 +34°C° 0 mm 1 mps 753 mmHg 50%
18:00 +32°C° 0 mm 1 mps 753 mmHg 53%
19:00 +31°C° 0 mm 1 mps 754 mmHg 56%
20:00 +31°C° 0 mm 1 mps 754 mmHg 58%
21:00 +30°C° 0 mm 1 mps 755 mmHg 60%
22:00 +30°C° 0 mm 2 mps 755 mmHg 62%
23:00 +29°C° 0 mm 2 mps 755 mmHg 67%

26 January, Tuesday

Time Temperature Precipitation Wind Pressure Humidity
00:00 +28°C° 0 mm 2 mps 755 mmHg 71%
01:00 +27°C° 0 mm 2 mps 755 mmHg 76%
02:00 +27°C° 0 mm 2 mps 755 mmHg 79%
03:00 +26°C° 0 mm 3 mps 755 mmHg 81%
04:00 +26°C° 0 mm 3 mps 755 mmHg 84%
05:00 +26°C° 0 mm 3 mps 755 mmHg 85%
06:00 +26°C° 0 mm 3 mps 755 mmHg 85%
07:00 +26°C° 0 mm 2 mps 756 mmHg 86%
08:00 +28°C° 0 mm 2 mps 756 mmHg 78%
09:00 +29°C° 0 mm 2 mps 756 mmHg 71%
10:00 +31°C° 0 mm 2 mps 757 mmHg 64%
11:00 +34°C° 0 mm 2 mps 756 mmHg 56%
12:00 +35°C° 0 mm 2 mps 755 mmHg 49%
13:00 +36°C° 0 mm 3 mps 754 mmHg 41%
14:00 +37°C° 0 mm 2 mps 753 mmHg 39%
15:00 +37°C° 0 mm 2 mps 753 mmHg 38%
16:00 +37°C° 0 mm 2 mps 752 mmHg 36%
17:00 +35°C° 0 mm 2 mps 752 mmHg 39%
18:00 +33°C° 0 mm 1 mps 753 mmHg 42%
19:00 +32°C° 0 mm 1 mps 753 mmHg 45%
20:00 +31°C° 0 mm 1 mps 754 mmHg 47%
21:00 +31°C° 0 mm 2 mps 754 mmHg 50%
22:00 +31°C° 0 mm 2 mps 755 mmHg 53%
23:00 +30°C° 0 mm 3 mps 755 mmHg 58%

27 January, Wednesday

Time Temperature Precipitation Wind Pressure Humidity
00:00 +29°C° 0 mm 4 mps 755 mmHg 64%
01:00 +28°C° 0 mm 4 mps 755 mmHg 70%
02:00 +28°C° 0 mm 4 mps 755 mmHg 72%
03:00 +28°C° 0 mm 4 mps 754 mmHg 74%
04:00 +27°C° 0 mm 3 mps 754 mmHg 76%
05:00 +27°C° 0 mm 3 mps 755 mmHg 77%
06:00 +27°C° 0 mm 2 mps 755 mmHg 78%
07:00 +27°C° 0 mm 1 mps 755 mmHg 80%
08:00 +28°C° 0 mm 1 mps 756 mmHg 73%
09:00 +30°C° 0 mm 1 mps 756 mmHg 67%
10:00 +31°C° 0 mm 1 mps 757 mmHg 61%
11:00 +32°C° 0 mm 1 mps 756 mmHg 57%
12:00 +34°C° 0 mm 2 mps 755 mmHg 53%
13:00 +35°C° 0 mm 2 mps 754 mmHg 49%
14:00 +35°C° 0 mm 2 mps 753 mmHg 48%
15:00 +35°C° 0 mm 2 mps 753 mmHg 47%
16:00 +36°C° 0 mm 2 mps 752 mmHg 46%
17:00 +34°C° 0.4 mm 2 mps 753 mmHg 51%
18:00 +32°C° 0.4 mm 2 mps 753 mmHg 57%
19:00 +30°C° 0.4 mm 2 mps 753 mmHg 62%
20:00 +30°C° 0.5 mm 1 mps 754 mmHg 65%
21:00 +29°C° 0.5 mm 1 mps 754 mmHg 68%
22:00 +29°C° 0.5 mm 1 mps 755 mmHg 71%
23:00 +28°C° 0.1 mm 2 mps 755 mmHg 75%

28 January, Thursday

Time Temperature Precipitation Wind Pressure Humidity
00:00 +27°C° 0.1 mm 3 mps 755 mmHg 80%
01:00 +26°C° 0.1 mm 4 mps 755 mmHg 85%
02:00 +26°C° 0.5 mm 3 mps 755 mmHg 86%
03:00 +25°C° 0.5 mm 3 mps 755 mmHg 88%
04:00 +25°C° 0.5 mm 2 mps 755 mmHg 90%
05:00 +25°C° 0 mm 2 mps 755 mmHg 89%
06:00 +25°C° 0 mm 1 mps 755 mmHg 88%
07:00 +25°C° 0 mm 1 mps 755 mmHg 87%
08:00 +27°C° 0 mm 1 mps 756 mmHg 78%
09:00 +29°C° 0 mm 1 mps 756 mmHg 70%
10:00 +29°C° 0 mm 0 mps 756 mmHg 61%
11:00 +32°C° 0 mm 1 mps 756 mmHg 55%
12:00 +33°C° 0 mm 1 mps 755 mmHg 49%
13:00 +36°C° 0 mm 2 mps 754 mmHg 43%
14:00 +36°C° 0 mm 2 mps 754 mmHg 41%
15:00 +36°C° 0 mm 2 mps 753 mmHg 38%
16:00 +37°C° 0 mm 3 mps 753 mmHg 36%
17:00 +35°C° 0 mm 3 mps 753 mmHg 41%
18:00 +34°C° 0 mm 3 mps 753 mmHg 46%
19:00 +31°C° 0 mm 3 mps 754 mmHg 51%
20:00 +30°C° 0 mm 2 mps 754 mmHg 58%
21:00 +29°C° 0 mm 2 mps 755 mmHg 64%
22:00 +28°C° 0 mm 2 mps 755 mmHg 70%
23:00 +28°C° 0 mm 2 mps 755 mmHg 71%
Show more